Regional Weather Roundup
Issued by NWS Kansas City/Pleasant Hill, MO

Home | Current Version | Previous Version | Text Only | Print | Product List | Glossary On
Versions: 1 2 3 4 5 6 7 8 9 10 11 12 13 14 15 16 17 18 19 20 21 22 23 24 25 26 27 28 29 30 31 32 33 34 35 36 37 38 39 40 41 42 43 44 45 46 47 48 49 50
000
ASUS43 KEAX 261804
RWREAX

WEATHER ROUNDUP FOR EASTERN KANSAS AND NORTHWEST MISSOURI
NATIONAL WEATHER SERVICE KANSAS CITY/PLEASANT HILL MO
1200 PM CST FRI DEC 26 2014

KSZ040-057-103>105-MOZ028-029-037-043-261900-
...KANSAS CITY METROPOLITAN AREA...

CITY           SKY/WX    TMP DP  RH WIND       PRES   REMARKS
K.C. INTL      CLOUDY    49  40  71 W7        29.93F
6HR MIN TEMP:  42; 6HR MAX TEMP:  49;

K.C. DOWNTOWN  PTSUNNY   54  42  64 SW13      29.93F
6HR MIN TEMP:  47; 6HR MAX TEMP:  54;

LEES SUMMIT    PTSUNNY   51  42  71 S12       29.94F
6HR MIN TEMP:  42; 6HR MAX TEMP:  51;

OLATHE - IXD   PTSUNNY   51  43  74 SW16G22   29.92F
6HR MIN TEMP:  44; 6HR MAX TEMP:  51;

OLATHE - OJC   CLOUDY    52  43  71 SW12      29.91F
6HR MIN TEMP:  45; 6HR MAX TEMP:  52;

LAWRENCE       CLOUDY    47  36  65 NW9       29.93F

$$

MOZ001>008-011>017-020>025-030>033-038>040-044>046-053-054-261900-
...NORTHERN AND CENTRAL MISSOURI...

CITY           SKY/WX    TMP DP  RH WIND       PRES   REMARKS
ST. JOSEPH     CLOUDY    35  32  88 N6        29.97F WCI  30
6HR MIN TEMP:  34; 6HR MAX TEMP:  40;

MOSBY          FAIR      52  41  66 SW13      29.94F
WARRENSBURG    FAIR      54  43  66 S15       29.95F
WHITEMAN AFB   NOT AVBL
CLINTON        FAIR      57  46  67 S13       29.96F
SEDALIA        FAIR      56  43  61 SW13G22   29.97F
6HR MIN TEMP:  44; 6HR MAX TEMP:  56;

WARSAW         NOT AVBL
MARSHALL       FAIR      55  45  67 SW12      29.98F
CHILLICOTHE      N/A     50  40  68 S14       29.95F
6HR MIN TEMP:  42; 6HR MAX TEMP:  50;

MOBERLY        FAIR      54  41  62 SW21G26   29.98F
KIRKSVILLE     FAIR      51  41  68 SW10      29.96F
6HR MIN TEMP:  36; 6HR MAX TEMP:  51;


$$

MOZ041-047>049-056>058-063>065-088>090-097-261900-
...EASTERN AND SOUTHERN MISSOURI...

CITY           SKY/WX    TMP DP  RH WIND       PRES   REMARKS
ST. LOUIS INTL FAIR      57  41  55 SW14      30.05F
6HR MIN TEMP:  42; 6HR MAX TEMP:  57;

SPIRIT OF STL  FAIR      57  42  57 SW10G21   30.04F
COLUMBIA       FAIR      57  43  59 SW12      29.99F
JEFFERSON CITY FAIR      58  43  57 SW10G17   30.00F
MEXICO         FAIR      57  48  72 SW16      30.00F
HANNIBAL       FAIR      55  39  54 SW14      29.99F
ROLLA          FAIR      54  42  64 S15       30.02F
LEBANON        FAIR      55  43  62 S13G18    30.02F
OSAGE BEACH    PTSUNNY   61  43  51 S18G24    29.99F
SPRINGFIELD    PTSUNNY   54  43  66 S17G25    30.00F
BRANSON        PTSUNNY   54  45  71 SE17G24   30.04F
NEVADA         FAIR      57  46  67 SW18G25   29.96F
JOPLIN         CLOUDY    58  46  64 SW18      29.96F
WEST PLAINS    PTSUNNY   50  42  74 S15       30.11F

$$

IAZ060-094-KSZ022-034>040-054-083-096-NEZ052-066-093-261900-
...KANSAS...SOUTHEAST NEBRASKA AND IOWA...

CITY           SKY/WX    TMP DP  RH WIND       PRES   REMARKS
TOPEKA         CLOUDY    38  33  82 N6        29.96F WCI  33
6HR MIN TEMP:  37; 6HR MAX TEMP:  43;

MANHATTAN      CLOUDY    35  33  92 NE9       29.95F FOG     WCI  28
EMPORIA        PTSUNNY   43  33  68 NW6       29.93S
CHANUTE        CLOUDY    55  45  68 SW21G26   29.92F
WICHITA        CLOUDY    39  32  76 N12       29.93F WCI  32
OMAHA          CLOUDY    33  31  92 N13       30.01S WCI  24
LINCOLN        CLOUDY    32  28  85 N16       30.01F WCI  21
FALLS CITY     CLOUDY    35  31  85 NE12      29.96F WCI  27
LAMONI         FAIR      40  33  76 NW3       29.93F
DES MOINES     CLOUDY    33  30  88 N8        29.97F FOG     WCI  26

$$



USA.gov is the U.S. government's official web portal to all federal, state and local government web resources and services.